Time,TemperatureF,DewpointF,PressureIn,WindDirection,WindDirectionDegrees,WindSpeedMPH,WindSpeedGustMPH,Humidity,HourlyPrecipIn,Conditions,Clouds,dailyrainin,SoftwareType,DateUTC
2013-05-14 00:03:00,53.0,44.0,30.14,NNW,333,0.0,-999.0,72,-99.99,,,-99.99,,2013-05-14 04:03:00,
2013-05-14 00:13:00,53.0,44.0,30.14,NNW,333,0.0,-999.0,72,-99.99,,,-99.99,,2013-05-14 04:13:00,
2013-05-14 00:23:00,52.0,44.0,30.14,NNW,333,0.0,-999.0,73,-99.99,,,-99.99,,2013-05-14 04:23:00,
2013-05-14 00:32:00,52.0,44.0,30.14,NNW,333,0.0,-999.0,74,-99.99,,,-99.99,,2013-05-14 04:32:00,
2013-05-14 00:43:00,52.0,44.0,30.14,NNW,333,0.0,-999.0,74,-99.99,,,-99.99,,2013-05-14 04:43:00,
2013-05-14 00:52:00,52.0,45.0,30.14,NNW,333,0.0,-999.0,76,-99.99,,,-99.99,,2013-05-14 04:52:00,
2013-05-14 01:02:00,51.0,44.0,30.15,NNW,333,0.0,-999.0,77,-99.99,,,-99.99,,2013-05-14 05:02:00,
2013-05-14 01:12:00,51.0,44.0,30.15,NNW,333,0.0,-999.0,77,-99.99,,,-99.99,,2013-05-14 05:12:00,
2013-05-14 01:22:00,51.0,45.0,30.15,NNW,333,0.0,-999.0,79,-99.99,,,-99.99,,2013-05-14 05:22:00,
2013-05-14 01:32:00,51.0,46.0,30.15,NNW,333,0.0,-999.0,83,-99.99,,,-99.99,,2013-05-14 05:32:00,
2013-05-14 01:42:00,51.0,47.0,30.15,NNW,333,0.0,-999.0,85,-99.99,,,-99.99,,2013-05-14 05:42:00,
2013-05-14 01:52:00,51.0,47.0,30.15,NNW,333,0.0,-999.0,85,-99.99,,,-99.99,,2013-05-14 05:52:00,
2013-05-14 02:01:00,51.0,47.0,30.15,NNW,333,0.0,-999.0,86,-99.99,,,-99.99,,2013-05-14 06:01:00,
2013-05-14 02:13:00,51.0,47.0,30.15,NNW,333,0.0,-999.0,86,-99.99,,,-99.99,,2013-05-14 06:13:00,
2013-05-14 02:22:00,50.0,46.0,30.15,NNW,333,0.0,-999.0,86,-99.99,,,-99.99,,2013-05-14 06:22:00,
2013-05-14 02:32:00,50.0,46.0,30.15,NNW,333,0.0,-999.0,87,-99.99,,,-99.99,,2013-05-14 06:32:00,
2013-05-14 02:42:00,50.0,47.0,30.15,NNW,333,0.0,-999.0,89,-99.99,,,-99.99,,2013-05-14 06:42:00,
2013-05-14 02:51:00,50.0,47.0,30.15,NNW,333,0.0,-999.0,89,-99.99,,,-99.99,,2013-05-14 06:51:00,
2013-05-14 03:02:00,50.0,47.0,30.15,NNW,333,0.0,-999.0,90,-99.99,,,-99.99,,2013-05-14 07:02:00,
2013-05-14 03:11:00,50.0,47.0,30.15,NNW,333,0.0,-999.0,90,-99.99,,,-99.99,,2013-05-14 07:11:00,
2013-05-14 03:21:00,50.0,47.0,30.15,NNW,333,0.0,-999.0,90,-99.99,,,-99.99,,2013-05-14 07:21:00,
2013-05-14 03:32:00,49.0,46.0,30.15,NNW,333,0.0,-999.0,90,-99.99,,,-99.99,,2013-05-14 07:32:00,
2013-05-14 03:42:00,49.0,46.0,30.15,NNW,333,0.0,-999.0,90,-99.99,,,-99.99,,2013-05-14 07:42:00,
2013-05-14 03:52:00,49.0,46.0,30.15,NNW,333,0.0,-999.0,90,-99.99,,,-99.99,,2013-05-14 07:52:00,
2013-05-14 04:02:00,49.0,46.0,30.15,NNW,333,0.0,-999.0,91,-99.99,,,-99.99,,2013-05-14 08:02:00,
2013-05-14 04:11:00,49.0,46.0,30.15,NNW,333,0.0,-999.0,91,-99.99,,,-99.99,,2013-05-14 08:11:00,
2013-05-14 04:21:00,49.0,46.0,30.15,NNW,333,0.0,-999.0,91,-99.99,,,-99.99,,2013-05-14 08:21:00,
2013-05-14 04:32:00,49.0,46.0,30.15,NNW,333,0.0,-999.0,90,-99.99,,,-99.99,,2013-05-14 08:32:00,
2013-05-14 04:42:00,49.0,44.0,30.16,NNE,28,1.0,-999.0,83,-99.99,,,-99.99,,2013-05-14 08:42:00,
2013-05-14 04:52:00,49.0,44.0,30.16,NNE,28,1.0,-999.0,83,-99.99,,,-99.99,,2013-05-14 08:52:00,
2013-05-14 05:02:00,49.0,43.0,30.16,NE,42,1.0,-999.0,79,-99.99,,,-99.99,,2013-05-14 09:02:00,
2013-05-14 05:11:00,49.0,43.0,30.16,NE,42,1.0,-999.0,79,-99.99,,,-99.99,,2013-05-14 09:11:00,
2013-05-14 05:22:00,49.0,41.0,30.17,NE,42,0.0,-999.0,75,-99.99,,,-99.99,,2013-05-14 09:22:00,
2013-05-14 05:32:00,50.0,40.0,30.17,NE,52,2.0,-999.0,68,-99.99,,,-99.99,,2013-05-14 09:32:00,
2013-05-14 05:44:00,51.0,40.0,30.17,NE,56,1.0,-999.0,66,-99.99,,,-99.99,,2013-05-14 09:44:00,
2013-05-14 05:54:00,51.0,40.0,30.17,NE,56,1.0,-999.0,66,-99.99,,,-99.99,,2013-05-14 09:54:00,
2013-05-14 06:05:00,50.0,39.0,30.18,NE,56,2.0,-999.0,66,-99.99,,,-99.99,,2013-05-14 10:05:00,
2013-05-14 06:14:00,50.0,39.0,30.18,NE,56,2.0,-999.0,66,-99.99,,,-99.99,,2013-05-14 10:14:00,
2013-05-14 06:25:00,50.0,39.0,30.18,NE,55,1.0,-999.0,66,-99.99,,,-99.99,,2013-05-14 10:25:00,
2013-05-14 06:33:00,50.0,39.0,30.19,NE,55,2.0,-999.0,65,-99.99,,,-99.99,,2013-05-14 10:33:00,
2013-05-14 06:42:00,50.0,39.0,30.20,ENE,61,3.0,-999.0,65,-99.99,,,-99.99,,2013-05-14 10:42:00,
2013-05-14 06:52:00,50.0,39.0,30.20,ENE,61,3.0,-999.0,65,-99.99,,,-99.99,,2013-05-14 10:52:00,
2013-05-14 07:03:00,50.0,39.0,30.20,NE,54,3.0,-999.0,66,-99.99,,,-99.99,,2013-05-14 11:03:00,
2013-05-14 07:11:00,50.0,39.0,30.20,NE,54,3.0,-999.0,66,-99.99,,,-99.99,,2013-05-14 11:11:00,
2013-05-14 07:22:00,50.0,39.0,30.20,NE,54,4.0,-999.0,66,-99.99,,,-99.99,,2013-05-14 11:22:00,
2013-05-14 07:32:00,51.0,38.0,30.19,ENE,61,5.0,-999.0,61,-99.99,,,-99.99,,2013-05-14 11:32:00,
2013-05-14 07:43:00,52.0,37.0,30.20,ENE,62,3.0,-999.0,57,-99.99,,,-99.99,,2013-05-14 11:43:00,
2013-05-14 07:52:00,52.0,37.0,30.20,ENE,62,3.0,-999.0,57,-99.99,,,-99.99,,2013-05-14 11:52:00,
2013-05-14 08:03:00,54.0,38.0,30.21,ENE,64,2.0,-999.0,54,-99.99,,,-99.99,,2013-05-14 12:03:00,
2013-05-14 08:12:00,54.0,38.0,30.21,ENE,64,2.0,-999.0,54,-99.99,,,-99.99,,2013-05-14 12:12:00,
2013-05-14 08:21:00,55.0,37.0,30.21,NE,54,1.0,-999.0,51,-99.99,,,-99.99,,2013-05-14 12:21:00,
2013-05-14 08:32:00,57.0,38.0,30.22,NE,49,1.0,-999.0,49,-99.99,,,-99.99,,2013-05-14 12:32:00,
2013-05-14 08:42:00,58.0,37.0,30.23,NE,54,1.0,-999.0,45,-99.99,,,-99.99,,2013-05-14 12:42:00,
2013-05-14 08:52:00,58.0,37.0,30.23,NE,54,1.0,-999.0,45,-99.99,,,-99.99,,2013-05-14 12:52:00,
2013-05-14 09:01:00,59.0,37.0,30.23,NE,48,0.0,-999.0,44,-99.99,,,-99.99,,2013-05-14 13:01:00,
2013-05-14 09:11:00,59.0,37.0,30.23,NE,48,0.0,-999.0,44,-99.99,,,-99.99,,2013-05-14 13:11:00,
2013-05-14 09:22:00,61.0,37.0,30.24,NE,55,1.0,-999.0,41,-99.99,,,-99.99,,2013-05-14 13:22:00,
2013-05-14 09:32:00,61.0,36.0,30.24,NE,54,2.0,-999.0,39,-99.99,,,-99.99,,2013-05-14 13:32:00,
2013-05-14 09:42:00,61.0,36.0,30.24,NE,54,2.0,-999.0,39,-99.99,,,-99.99,,2013-05-14 13:42:00,
2013-05-14 09:52:00,61.0,36.0,30.24,NE,54,2.0,-999.0,39,-99.99,,,-99.99,,2013-05-14 13:52:00,
2013-05-14 10:01:00,64.0,36.0,30.25,NE,56,1.0,-999.0,35,-99.99,,,-99.99,,2013-05-14 14:01:00,
2013-05-14 10:11:00,64.0,34.0,30.25,ENE,68,1.0,-999.0,33,-99.99,,,-99.99,,2013-05-14 14:11:00,
2013-05-14 10:22:00,64.0,34.0,30.25,ENE,68,1.0,-999.0,33,-99.99,,,-99.99,,2013-05-14 14:22:00,
2013-05-14 10:32:00,64.0,34.0,30.25,ENE,65,0.0,-999.0,32,-99.99,,,-99.99,,2013-05-14 14:32:00,
2013-05-14 10:42:00,65.0,33.0,30.25,ESE,114,1.0,-999.0,30,-99.99,,,-99.99,,2013-05-14 14:42:00,
2013-05-14 10:52:00,65.0,33.0,30.25,ESE,114,1.0,-999.0,30,-99.99,,,-99.99,,2013-05-14 14:52:00,
2013-05-14 11:01:00,65.0,34.0,30.25,SSE,155,2.0,-999.0,31,-99.99,,,-99.99,,2013-05-14 15:01:00,
2013-05-14 11:12:00,65.0,34.0,30.25,SSE,155,2.0,-999.0,31,-99.99,,,-99.99,,2013-05-14 15:12:00,
2013-05-14 11:22:00,66.0,32.0,30.26,SSE,165,1.0,-999.0,28,-99.99,,,-99.99,,2013-05-14 15:22:00,
2013-05-14 11:33:00,65.0,33.0,30.25,SW,217,2.0,-999.0,30,-99.99,,,-99.99,,2013-05-14 15:33:00,
2013-05-14 11:43:00,66.0,36.0,30.25,South,174,1.0,-999.0,33,-99.99,,,-99.99,,2013-05-14 15:43:00,
2013-05-14 11:53:00,66.0,36.0,30.25,South,174,1.0,-999.0,33,-99.99,,,-99.99,,2013-05-14 15:53:00,
2013-05-14 12:02:00,66.0,34.0,30.26,SSW,198,4.0,-999.0,30,-99.99,,,-99.99,,2013-05-14 16:02:00,
2013-05-14 12:12:00,66.0,34.0,30.26,SSW,198,4.0,-999.0,30,-99.99,,,-99.99,,2013-05-14 16:12:00,
2013-05-14 12:23:00,66.0,35.0,30.26,South,178,3.0,-999.0,32,-99.99,,,-99.99,,2013-05-14 16:23:00,
2013-05-14 12:33:00,67.0,35.0,30.26,SSE,161,2.0,-999.0,30,-99.99,,,-99.99,,2013-05-14 16:33:00,
2013-05-14 12:43:00,67.0,35.0,30.26,SSE,161,2.0,-999.0,30,-99.99,,,-99.99,,2013-05-14 16:43:00,
2013-05-14 12:54:00,67.0,38.0,30.26,SSE,157,3.0,-999.0,35,-99.99,,,-99.99,,2013-05-14 16:54:00,
2013-05-14 13:03:00,67.0,35.0,30.25,South,175,2.0,-999.0,31,-99.99,,,-99.99,,2013-05-14 17:03:00,
2013-05-14 13:13:00,67.0,35.0,30.25,South,175,2.0,-999.0,31,-99.99,,,-99.99,,2013-05-14 17:13:00,
2013-05-14 13:24:00,68.0,39.0,30.25,South,171,2.0,-999.0,34,-99.99,,,-99.99,,2013-05-14 17:24:00,
2013-05-14 13:33:00,67.0,38.0,30.24,SE,131,3.0,-999.0,34,-99.99,,,-99.99,,2013-05-14 17:33:00,
2013-05-14 13:43:00,67.0,38.0,30.24,SE,131,3.0,-999.0,34,-99.99,,,-99.99,,2013-05-14 17:43:00,
2013-05-14 13:52:00,68.0,38.0,30.24,SSE,168,4.0,-999.0,33,-99.99,,,-99.99,,2013-05-14 17:52:00,
2013-05-14 14:02:00,67.0,38.0,30.23,SSE,168,5.0,-999.0,34,-99.99,,,-99.99,,2013-05-14 18:02:00,
2013-05-14 14:12:00,67.0,38.0,30.23,SSE,168,5.0,-999.0,34,-99.99,,,-99.99,,2013-05-14 18:12:00,
2013-05-14 14:22:00,67.0,37.0,30.22,SW,229,5.0,-999.0,33,-99.99,,,-99.99,,2013-05-14 18:22:00,
2013-05-14 14:32:00,69.0,39.0,30.22,SSW,198,3.0,-999.0,34,-99.99,,,-99.99,,2013-05-14 18:32:00,
2013-05-14 14:42:00,69.0,39.0,30.22,SSW,198,3.0,-999.0,34,-99.99,,,-99.99,,2013-05-14 18:42:00,
2013-05-14 14:52:00,68.0,38.0,30.20,South,186,5.0,-999.0,33,-99.99,,,-99.99,,2013-05-14 18:52:00,
2013-05-14 15:01:00,68.0,37.0,30.19,SSW,192,6.0,-999.0,32,-99.99,,,-99.99,,2013-05-14 19:01:00,
2013-05-14 15:12:00,68.0,37.0,30.19,SSW,192,6.0,-999.0,32,-99.99,,,-99.99,,2013-05-14 19:12:00,
2013-05-14 15:22:00,68.0,37.0,30.19,South,175,5.0,-999.0,32,-99.99,,,-99.99,,2013-05-14 19:22:00,
2013-05-14 15:32:00,68.0,39.0,30.18,SSE,158,6.0,-999.0,35,-99.99,,,-99.99,,2013-05-14 19:32:00,
2013-05-14 15:42:00,68.0,39.0,30.18,SSE,158,6.0,-999.0,35,-99.99,,,-99.99,,2013-05-14 19:42:00,
2013-05-14 15:52:00,68.0,38.0,30.18,South,188,7.0,-999.0,33,-99.99,,,-99.99,,2013-05-14 19:52:00,
2013-05-14 16:02:00,69.0,39.0,30.18,SW,226,5.0,-999.0,34,-99.99,,,-99.99,,2013-05-14 20:02:00,
2013-05-14 16:11:00,69.0,39.0,30.18,SW,226,5.0,-999.0,34,-99.99,,,-99.99,,2013-05-14 20:11:00,
2013-05-14 16:23:00,68.0,38.0,30.18,South,188,5.0,-999.0,33,-99.99,,,-99.99,,2013-05-14 20:23:00,
2013-05-14 16:33:00,68.0,39.0,30.17,SSW,200,5.0,-999.0,35,-99.99,,,-99.99,,2013-05-14 20:33:00,
2013-05-14 16:44:00,68.0,41.0,30.18,SE,136,5.0,-999.0,37,-99.99,,,-99.99,,2013-05-14 20:44:00,
2013-05-14 16:52:00,68.0,41.0,30.18,SE,136,5.0,-999.0,37,-99.99,,,-99.99,,2013-05-14 20:52:00,
2013-05-14 17:03:00,68.0,41.0,30.18,SSE,157,6.0,-999.0,37,-99.99,,,-99.99,,2013-05-14 21:03:00,
2013-05-14 17:12:00,68.0,39.0,30.18,South,172,5.0,-999.0,35,-99.99,,,-99.99,,2013-05-14 21:12:00,
2013-05-14 17:23:00,68.0,39.0,30.18,South,172,5.0,-999.0,35,-99.99,,,-99.99,,2013-05-14 21:23:00,
2013-05-14 17:33:00,68.0,39.0,30.17,SW,219,5.0,-999.0,35,-99.99,,,-99.99,,2013-05-14 21:33:00,
2013-05-14 17:43:00,68.0,41.0,30.17,South,191,4.0,-999.0,37,-99.99,,,-99.99,,2013-05-14 21:43:00,
2013-05-14 17:52:00,68.0,41.0,30.17,South,191,4.0,-999.0,37,-99.99,,,-99.99,,2013-05-14 21:52:00,
2013-05-14 18:03:00,68.0,38.0,30.17,South,182,6.0,-999.0,33,-99.99,,,-99.99,,2013-05-14 22:03:00,
2013-05-14 18:13:00,68.0,39.0,30.17,South,191,3.0,-999.0,35,-99.99,,,-99.99,,2013-05-14 22:13:00,
2013-05-14 18:24:00,68.0,39.0,30.17,South,191,3.0,-999.0,35,-99.99,,,-99.99,,2013-05-14 22:24:00,
2013-05-14 18:34:00,68.0,39.0,30.18,SSE,160,5.0,-999.0,34,-99.99,,,-99.99,,2013-05-14 22:34:00,
2013-05-14 18:45:00,67.0,39.0,30.18,SSW,196,4.0,-999.0,36,-99.99,,,-99.99,,2013-05-14 22:45:00,
2013-05-14 18:54:00,67.0,39.0,30.18,SSW,196,4.0,-999.0,36,-99.99,,,-99.99,,2013-05-14 22:54:00,
2013-05-14 19:03:00,67.0,41.0,30.17,SW,224,5.0,-999.0,38,-99.99,,,-99.99,,2013-05-14 23:03:00,
2013-05-14 19:12:00,67.0,41.0,30.17,SW,224,5.0,-999.0,38,-99.99,,,-99.99,,2013-05-14 23:12:00,
2013-05-14 19:22:00,67.0,42.0,30.17,SW,217,3.0,-999.0,40,-99.99,,,-99.99,,2013-05-14 23:22:00,
2013-05-14 19:32:00,66.0,42.0,30.17,SW,216,4.0,-999.0,41,-99.99,,,-99.99,,2013-05-14 23:32:00,
2013-05-14 19:44:00,66.0,42.0,30.17,SW,216,4.0,-999.0,41,-99.99,,,-99.99,,2013-05-14 23:44:00,
2013-05-14 19:52:00,66.0,43.0,30.17,SSE,167,3.0,-999.0,44,-99.99,,,-99.99,,2013-05-14 23:52:00,
2013-05-14 20:02:00,66.0,45.0,30.17,SSW,200,3.0,-999.0,46,-99.99,,,-99.99,,2013-05-15 00:02:00,
2013-05-14 20:11:00,66.0,45.0,30.17,SSW,200,3.0,-999.0,46,-99.99,,,-99.99,,2013-05-15 00:11:00,
2013-05-14 20:21:00,65.0,45.0,30.17,South,174,2.0,-999.0,49,-99.99,,,-99.99,,2013-05-15 00:21:00,
2013-05-14 20:32:00,65.0,46.0,30.17,South,172,2.0,-999.0,51,-99.99,,,-99.99,,2013-05-15 00:32:00,
2013-05-14 20:42:00,64.0,47.0,30.17,SSW,200,2.0,-999.0,53,-99.99,,,-99.99,,2013-05-15 00:42:00,
2013-05-14 20:52:00,64.0,47.0,30.17,SSW,200,2.0,-999.0,53,-99.99,,,-99.99,,2013-05-15 00:52:00,
2013-05-14 21:01:00,64.0,47.0,30.17,SSW,203,2.0,-999.0,54,-99.99,,,-99.99,,2013-05-15 01:01:00,
2013-05-14 21:11:00,63.0,47.0,30.16,SSW,203,1.0,-999.0,56,-99.99,,,-99.99,,2013-05-15 01:11:00,
2013-05-14 21:22:00,63.0,47.0,30.16,SSW,203,1.0,-999.0,56,-99.99,,,-99.99,,2013-05-15 01:22:00,
2013-05-14 21:32:00,63.0,48.0,30.16,SSW,203,1.0,-999.0,57,-99.99,,,-99.99,,2013-05-15 01:32:00,
2013-05-14 21:42:00,63.0,48.0,30.16,SSW,202,1.0,-999.0,58,-99.99,,,-99.99,,2013-05-15 01:42:00,
2013-05-14 21:52:00,63.0,48.0,30.16,SSW,202,1.0,-999.0,58,-99.99,,,-99.99,,2013-05-15 01:52:00,
2013-05-14 22:02:00,63.0,48.0,30.16,SSW,202,1.0,-999.0,59,-99.99,,,-99.99,,2013-05-15 02:02:00,
2013-05-14 22:11:00,63.0,48.0,30.16,SSW,202,1.0,-999.0,59,-99.99,,,-99.99,,2013-05-15 02:11:00,
2013-05-14 22:21:00,63.0,49.0,30.17,SSW,202,0.0,-999.0,61,-99.99,,,-99.99,,2013-05-15 02:21:00,
2013-05-14 22:32:00,63.0,50.0,30.17,SSW,202,1.0,-999.0,62,-99.99,,,-99.99,,2013-05-15 02:32:00,
2013-05-14 22:42:00,62.0,49.0,30.17,SSW,202,0.0,-999.0,63,-99.99,,,-99.99,,2013-05-15 02:42:00,
2013-05-14 22:52:00,62.0,49.0,30.17,SSW,202,0.0,-999.0,63,-99.99,,,-99.99,,2013-05-15 02:52:00,
2013-05-14 23:01:00,62.0,50.0,30.17,SSW,202,0.0,-999.0,64,-99.99,,,-99.99,,2013-05-15 03:01:00,
2013-05-14 23:12:00,62.0,50.0,30.17,SSW,202,0.0,-999.0,64,-99.99,,,-99.99,,2013-05-15 03:12:00,
2013-05-14 23:22:00,62.0,51.0,30.17,SSW,202,0.0,-999.0,66,-99.99,,,-99.99,,2013-05-15 03:22:00,
2013-05-14 23:33:00,62.0,51.0,30.16,SSW,202,0.0,-999.0,67,-99.99,,,-99.99,,2013-05-15 03:33:00,
2013-05-14 23:44:00,61.0,50.0,30.16,SSW,202,0.0,-999.0,68,-99.99,,,-99.99,,2013-05-15 03:44:00,
2013-05-14 23:54:00,61.0,50.0,30.16,SSW,202,0.0,-999.0,68,-99.99,,,-99.99,,2013-05-15 03:54:00,